Latest Weather Observations for Cooma Airport

IDN60901

Issued at 7:25 am EST Wednesday 17 September 2014 (issued every 10 minutes, with the page automatically refreshed every 10 minutes)

About weather observations | Map of Canberra area stations | Latest observations for Canberra area | Other Formats
Station Details ID: 070217 Name: COOMA AIRPORT AWS Lat: -36.29 Lon: 148.97 Height: 930.0 m
Data from the previous 72 hours. | See also: Recent months for locations in Aust Capital Territory
Date/Time
EST
Tmp

°C
App
Tmp
°C
Dew
Point
°C
Rel
Hum
%
Delta-T

°C
Wind Press
QNH
hPa
Press
MSL
hPa
Rain
since
9 am
mm
Dir
 
Spd
km/h
Gust
km/h
Spd
kts
Gust
kts
17/07:00am 5.3 3.5 5.2 99 0.0 WSW 4 7 2 4 1011.1 - 2.4
17/06:30am 4.3 0.9 4.2 99 0.0 SSW 11 13 6 7 1010.9 - 2.4
17/06:04am 5.3 2.1 5.0 98 0.1 SSW 11 13 6 7 1010.6 - 2.4
17/06:00am 5.5 2.4 5.4 99 0.0 SSW 11 13 6 7 1010.6 1010.7 2.4
17/05:30am 6.0 3.6 5.4 96 0.3 SSW 7 11 4 6 1010.5 - 2.4
17/05:00am 5.9 4.6 5.8 99 0.0 SW 2 7 1 4 1010.5 - 2.4
17/04:30am 6.0 3.0 5.9 99 0.0 S 11 13 6 7 1010.1 - 2.4
17/04:00am 6.1 2.7 6.0 99 0.0 S 13 17 7 9 1009.9 - 2.4
17/03:30am 6.3 2.6 6.2 99 0.0 S 15 19 8 10 1009.6 - 2.4
17/03:29am 6.2 2.5 6.1 99 0.0 S 15 19 8 10 1009.6 - 2.4
17/03:00am 6.7 3.4 6.6 99 0.0 SW 13 15 7 8 1009.6 1009.7 2.4
17/02:51am 6.7 3.4 6.6 99 0.0 SSW 13 17 7 9 1009.6 - 2.2
17/02:42am 6.7 2.7 6.6 99 0.0 SSW 17 20 9 11 1009.8 - 2.2
17/02:30am 6.7 3.4 6.6 99 0.0 SW 13 15 7 8 1009.6 - 1.8
17/02:24am 6.8 3.6 6.7 99 0.0 WSW 13 17 7 9 1009.8 - 1.6
17/02:15am 6.9 3.6 6.6 98 0.1 WSW 13 17 7 9 1009.8 - 1.0
17/02:00am 7.0 3.4 6.7 98 0.1 SW 15 19 8 10 1009.6 - 0.4
17/01:30am 7.4 3.5 7.1 98 0.1 SSW 17 20 9 11 1009.9 - 0.2
17/01:00am 7.4 4.7 7.3 99 0.0 S 11 13 6 7 1009.9 - 0.2
17/12:30am 7.5 5.2 7.4 99 0.0 SW 9 9 5 5 1010.1 - 0.2
17/12:00am 7.5 5.6 7.4 99 0.0 WSW 7 7 4 4 1010.1 1010.2 0.2
 
Date/Time
EST
Tmp

°C
App
Tmp
°C
Dew
Point
°C
Rel
Hum
%
Delta-T

°C
Wind Press
QNH
hPa
Press
MSL
hPa
Rain
since
9 am
mm
Dir
 
Spd
km/h
Gust
km/h
Spd
kts
Gust
kts
16/11:30pm 7.5 5.2 7.4 99 0.0 SW 9 11 5 6 1010.2 - 0.2
16/11:00pm 7.6 4.9 7.3 98 0.1 SSW 11 13 6 7 1010.3 - 0.2
16/10:30pm 7.8 4.6 6.9 94 0.4 SSW 13 17 7 9 1010.3 - 0.2
16/10:00pm 8.2 5.5 5.7 84 1.2 SW 9 11 5 6 1010.3 - 0.2
16/09:30pm 8.6 3.8 4.6 76 1.9 S 19 20 10 11 1010.2 - 0.2
16/09:00pm 9.2 5.1 4.2 71 2.3 W 15 22 8 12 1009.9 1009.9 0.2
16/08:30pm 8.4 4.6 4.0 74 2.0 WNW 13 17 7 9 1009.9 - 0.2
16/08:00pm 6.8 3.5 2.7 75 1.8 W 9 13 5 7 1009.8 - 0.2
16/07:30pm 8.1 4.5 3.2 71 2.2 SSW 11 13 6 7 1009.4 - 0.2
16/07:00pm 7.4 3.4 3.1 74 1.9 SSW 13 15 7 8 1009.1 - 0.2
16/06:30pm 9.3 4.1 3.5 67 2.7 W 20 32 11 17 1008.8 - 0.2
16/06:00pm 9.6 5.0 3.6 66 2.8 W 17 24 9 13 1008.1 1008.2 0.2
16/05:30pm 10.4 4.9 3.9 64 3.0 W 22 32 12 17 1007.8 - 0.2
16/05:00pm 10.5 4.9 3.5 62 3.2 W 22 30 12 16 1007.5 - 0.2
16/04:30pm 12.5 5.9 4.2 57 4.0 W 28 41 15 22 1007.3 - 0.2
16/04:00pm 13.1 7.0 4.8 57 4.0 W 26 35 14 19 1007.2 - 0.2
16/03:30pm 12.9 6.4 4.6 57 4.0 WNW 28 39 15 21 1007.0 - 0.2
16/03:00pm 12.8 6.3 4.5 57 4.0 WNW 28 37 15 20 1007.0 1007.0 0.2
16/02:30pm 12.5 6.7 4.5 58 3.8 WNW 24 33 13 18 1007.1 - 0.2
16/02:00pm 12.7 6.0 5.4 61 3.6 WNW 30 39 16 21 1006.9 - 0.2
16/01:30pm 14.9 10.0 4.0 48 5.3 W 19 30 10 16 1006.7 - 0.2
16/01:00pm 14.5 9.6 5.0 53 4.7 W 20 28 11 15 1006.9 - 0.2
16/12:30pm 15.3 11.5 4.1 47 5.5 N 13 19 7 10 1007.1 - 0.2
16/12:00pm 14.5 10.3 5.6 55 4.5 NNW 17 24 9 13 1007.7 1007.7 0.2
16/11:30am 15.0 10.8 7.3 60 4.0 NE 19 26 10 14 1008.1 - 0.2
16/11:00am 13.3 8.5 7.3 67 3.1 NE 22 28 12 15 1008.8 - 0.0
16/10:30am 12.9 8.6 7.1 68 3.0 NE 19 28 10 15 1009.2 - 0.0
16/10:00am 12.6 8.3 7.9 73 2.4 NE 20 28 11 15 1009.6 - 0.0
16/09:30am 11.9 6.7 7.4 74 2.3 NE 24 28 13 15 1010.0 - 0.0
16/09:00am 11.0 6.5 6.9 76 2.1 NE 20 26 11 14 1010.3 1010.4 2.2
16/08:30am 10.2 5.8 7.3 82 1.5 NNE 20 26 11 14 1010.3 - 2.2
16/08:00am 9.4 5.8 8.5 94 0.5 NE 17 20 9 11 1010.5 - 2.2
16/07:30am 8.1 5.6 8.0 99 0.1 NE 11 13 6 7 1010.7 - 2.2
16/07:00am 7.8 4.8 7.7 99 0.0 NNE 13 15 7 8 1010.6 - 2.2
16/06:30am 7.3 4.2 7.2 99 0.0 N 13 15 7 8 1010.4 - 2.2
16/06:00am 7.7 4.7 7.6 99 0.0 ENE 13 17 7 9 1010.2 1010.3 2.2
16/05:30am 7.9 4.2 7.8 99 0.0 ENE 17 22 9 12 1010.3 - 2.2
16/05:00am 8.0 4.7 7.9 99 0.1 NE 15 20 8 11 1010.7 - 2.2
16/04:30am 7.6 4.6 7.5 99 0.0 NE 13 17 7 9 1011.0 - 2.2
16/04:00am 7.9 4.5 7.8 99 0.0 N 15 19 8 10 1011.4 - 2.2
16/03:30am 8.1 4.0 8.0 99 0.1 E 19 24 10 13 1010.6 - 2.2
16/03:00am 7.9 4.5 7.8 99 0.1 NE 15 17 8 9 1011.6 1011.7 2.2
16/02:30am 7.8 4.4 7.7 99 0.0 NNE 15 17 8 9 1012.1 - 2.2
16/02:00am 7.8 4.8 7.7 99 0.0 NNE 13 19 7 10 1012.1 - 2.2
16/01:59am 7.8 4.4 7.7 99 0.0 NNE 15 19 8 10 1012.2 - 2.2
16/01:56am 7.8 4.4 7.7 99 0.0 NNE 15 19 8 10 1012.2 - 2.2
16/01:30am 8.1 4.8 8.1 100 0.0 NE 15 19 8 10 1012.4 - 2.2
16/01:09am 8.0 3.9 7.9 99 0.1 NE 19 20 10 11 1012.6 - 2.2
16/01:00am 8.1 4.4 8.0 99 0.1 NNE 17 20 9 11 1012.8 - 2.2
16/12:30am 8.0 5.4 7.9 99 0.1 NNE 11 15 6 8 1013.0 - 2.2
16/12:00am 8.3 5.0 8.2 99 0.1 NNE 15 19 8 10 1013.1 1013.3 2.2
 
Date/Time
EST
Tmp

°C
App
Tmp
°C
Dew
Point
°C
Rel
Hum
%
Delta-T

°C
Wind Press
QNH
hPa
Press
MSL
hPa
Rain
since
9 am
mm
Dir
 
Spd
km/h
Gust
km/h
Spd
kts
Gust
kts
15/11:30pm 8.4 5.5 8.3 99 0.1 NE 13 17 7 9 1013.7 - 2.2
15/11:00pm 8.8 5.2 8.4 97 0.2 NE 17 20 9 11 1014.1 - 2.2
15/10:30pm 9.0 7.1 8.9 99 0.1 NE 9 13 5 7 1014.9 - 2.2
15/10:00pm 8.9 6.9 8.8 99 0.1 ENE 9 11 5 6 1015.1 - 2.0
15/09:30pm 8.9 7.3 8.8 99 0.1 NNE 7 9 4 5 1015.3 - 1.4
15/09:00pm 9.2 7.7 9.1 99 0.1 NNE 7 9 4 5 1015.2 1015.4 1.4
15/08:30pm 9.2 7.3 9.1 99 0.1 NNE 9 13 5 7 1015.3 - 1.0
15/08:03pm 9.3 6.3 9.2 99 0.1 NE 15 19 8 10 1015.0 - 1.0
15/08:00pm 9.3 6.3 9.2 99 0.1 NE 15 19 8 10 1015.0 - 1.0
15/07:47pm 9.3 5.5 9.2 99 0.1 NNE 19 20 10 11 1015.1 - 0.8
15/07:30pm 9.2 6.9 9.1 99 0.1 N 11 13 6 7 1015.0 - 0.6
15/07:00pm 8.2 5.3 6.7 90 0.7 NNE 11 17 6 9 1014.8 - 0.6
15/06:30pm 10.1 7.1 7.7 85 1.2 NE 13 17 7 9 1014.7 - 0.6
15/06:00pm 10.7 8.1 6.3 74 2.2 NE 9 13 5 7 1014.6 1014.8 0.6
15/05:30pm 11.9 9.8 6.8 71 2.6 NE 7 9 4 5 1014.5 - 0.6
15/05:00pm 12.9 10.2 5.8 62 3.5 NNE 9 11 5 6 1014.4 - 0.6
15/04:30pm 13.3 10.8 5.0 57 4.1 NE 7 9 4 5 1014.4 - 0.6
15/04:00pm 13.4 11.0 5.3 58 4.0 NE 7 9 4 5 1014.4 - 0.6
15/03:30pm 13.2 10.8 5.4 59 3.8 SSW 7 11 4 6 1014.8 - 0.0
15/03:00pm 14.5 12.2 2.7 45 5.5 WSW 4 7 2 4 1014.6 1014.8 0.0
15/02:30pm 14.3 11.1 3.2 47 5.3 NW 9 24 5 13 1014.8 - 0.0
15/02:00pm 14.3 11.2 3.7 49 5.1 NW 9 13 5 7 1015.0 - 0.0
15/01:30pm 14.3 12.5 3.5 48 5.2 N 2 7 1 4 1015.1 - 0.0
15/01:00pm 14.1 11.3 3.3 48 5.1 SSW 7 15 4 8 1015.6 - 0.0
15/12:30pm 14.0 11.3 3.8 50 4.9 WSW 7 15 4 8 1015.9 - 0.0
15/12:00pm 14.1 11.6 3.8 50 4.9 S 6 15 3 8 1016.2 1016.4 0.0
15/11:30am 13.0 8.9 2.3 48 4.9 SSE 13 19 7 10 1016.5 - 0.0
15/11:00am 13.4 10.4 4.3 54 4.4 E 9 15 5 8 1017.1 - 0.0
15/10:30am 12.2 9.4 3.2 54 4.2 ENE 7 13 4 7 1017.5 - 0.0
15/10:00am 11.5 7.9 4.9 64 3.2 NE 13 17 7 9 1017.9 - 0.0
15/09:30am 10.3 6.4 5.3 71 2.4 NE 15 19 8 10 1018.1 - 0.0
15/09:00am 9.6 5.3 5.4 75 2.0 NE 17 20 9 11 1018.3 1018.6 0.0
15/08:30am 7.5 4.1 5.8 89 0.8 NE 13 17 7 9 1018.3 - 0.0
15/08:00am 5.8 1.4 4.9 94 0.4 NE 17 19 9 10 1018.1 - 0.0
15/07:30am 3.8 -0.1 3.5 98 0.1 NE 13 17 7 9 1018.1 - 0.0
15/07:00am 0.7 -2.5 0.6 99 0.0 NE 7 11 4 6 1018.0 - 0.0
15/06:30am -0.2 -2.3 -0.5 98 0.1 CALM 0 0 0 0 1017.7 - 0.0
15/06:00am -0.1 -2.1 -0.2 99 0.0 CALM 0 0 0 0 1017.9 1018.1 0.0
15/05:30am -0.9 -3.1 -1.3 97 0.1 CALM 0 0 0 0 1017.7 - 0.0
15/05:00am -0.5 -2.7 -1.3 94 0.3 CALM 0 0 0 0 1017.9 - 0.0
15/04:30am -0.2 -2.3 -0.6 97 0.1 CALM 0 0 0 0 1017.7 - 0.0
15/04:00am 0.9 -1.0 0.8 99 0.0 CALM 0 0 0 0 1017.9 - 0.0
15/03:30am -0.6 -3.2 -1.9 91 0.4 SW 2 6 1 3 1018.0 - 0.0
15/03:00am 0.7 -1.3 -0.3 93 0.4 CALM 0 0 0 0 1018.2 1018.4 0.0
15/02:30am 1.5 -0.5 0.2 91 0.5 CALM 0 0 0 0 1018.5 - 0.0
15/02:00am 2.4 -0.1 1.5 94 0.4 W 4 7 2 4 1018.7 - 0.0
15/01:30am 2.7 -0.2 2.6 99 0.0 SSW 7 9 4 5 1018.9 - 0.0
15/01:00am 2.1 -1.3 2.0 99 0.0 SW 9 11 5 6 1019.1 - 0.0
15/12:30am 1.0 -0.9 0.6 97 0.2 CALM 0 0 0 0 1019.1 - 0.0
15/12:00am 1.1 -0.9 -0.1 92 0.5 CALM 0 0 0 0 1019.3 1019.6 0.0
 
Date/Time
EST
Tmp

°C
App
Tmp
°C
Dew
Point
°C
Rel
Hum
%
Delta-T

°C
Wind Press
QNH
hPa
Press
MSL
hPa
Rain
since
9 am
mm
Dir
 
Spd
km/h
Gust
km/h
Spd
kts
Gust
kts
14/11:30pm 2.9 1.2 1.6 91 0.5 CALM 0 0 0 0 1019.2 - 0.0
14/11:00pm 3.1 1.5 2.4 95 0.3 CALM 0 0 0 0 1019.5 - 0.0
14/10:30pm 2.9 1.2 1.6 91 0.5 CALM 0 0 0 0 1019.6 - 0.0
14/10:00pm 3.8 2.1 1.7 86 0.9 CALM 0 0 0 0 1019.7 - 0.0
14/09:30pm 6.8 4.0 3.2 78 1.6 W 7 9 4 5 1019.7 - 0.0
14/09:00pm 8.3 7.2 5.1 80 1.5 CALM 0 7 0 4 1019.8 1020.1 0.0
14/08:30pm 8.7 7.5 4.5 75 2.0 CALM 0 0 0 0 1019.5 - 0.0
14/08:00pm 9.9 6.3 4.9 71 2.4 SE 13 17 7 9 1019.4 - 0.0
14/07:30pm 9.7 5.7 4.9 72 2.3 SE 15 20 8 11 1019.1 - 0.0
14/07:00pm 8.2 4.9 4.4 77 1.8 S 11 15 6 8 1018.8 - 0.0
14/06:30pm 9.5 6.0 5.3 75 2.0 S 13 15 7 8 1018.4 - 0.0
14/06:00pm 11.0 7.0 4.7 65 3.0 SSE 15 19 8 10 1018.0 1018.2 0.0
14/05:30pm 11.5 6.5 4.7 63 3.3 SSE 20 26 11 14 1017.9 - 0.0
14/05:00pm 12.7 8.3 4.7 58 3.9 S 17 20 9 11 1017.7 - 0.0
14/04:30pm 14.2 11.5 3.9 50 5.0 SSE 7 11 4 6 1017.4 - 0.0
14/04:00pm 14.1 10.6 3.3 48 5.1 S 11 15 6 8 1017.5 - 0.0
14/03:30pm 14.2 10.9 4.8 53 4.6 SSE 11 17 6 9 1017.5 - 0.0
14/03:00pm 13.9 10.1 3.9 51 4.8 S 13 20 7 11 1017.5 1017.8 0.0
14/02:30pm 13.8 9.5 3.0 48 5.1 S 15 20 8 11 1017.5 - 0.0
14/02:00pm 13.4 9.3 2.0 46 5.2 SSW 13 17 7 9 1017.5 - 0.0
14/01:30pm 13.0 9.4 2.8 50 4.7 SSW 11 15 6 8 1017.7 - 0.0
14/01:00pm 12.3 8.6 4.3 58 3.8 SSW 13 19 7 10 1018.2 - 0.0
14/12:30pm 11.8 7.8 4.8 62 3.4 S 15 20 8 11 1018.6 - 0.0
14/12:00pm 10.3 8.0 5.7 73 2.2 SW 7 11 4 6 1019.2 1019.5 0.0
14/11:30am 9.1 7.6 4.9 75 2.0 SE 2 7 1 4 1019.7 - 0.0
14/11:03am 7.7 5.4 4.7 81 1.4 SSE 6 17 3 9 1020.2 - 0.0
14/11:00am 8.6 7.0 6.4 86 1.1 SSE 4 17 2 9 1020.2 - 0.0
14/10:30am 6.9 4.7 5.5 91 0.7 S 6 9 3 5 1020.4 - 0.0
14/10:00am 6.3 4.9 5.4 94 0.4 WSW 2 6 1 3 1020.8 - 0.0
14/09:30am 5.9 3.5 5.3 96 0.3 SE 7 13 4 7 1021.0 - 0.0
14/09:00am 5.6 3.3 5.5 99 0.0 SSW 7 13 4 7 1021.2 1021.6 0.0
14/08:33am 5.3 2.5 5.3 100 0.0 SSW 9 11 5 6 1021.5 - 0.0
14/08:30am 5.2 2.4 5.2 100 0.0 S 9 11 5 6 1021.5 - 0.0
14/08:00am 4.6 3.4 4.5 99 0.0 CALM 0 0 0 0 1021.2 - 0.0
14/07:30am 3.8 2.4 3.7 99 0.0 CALM 0 4 0 2 1021.1 - 0.0

Latest Capital City Observations: Canberra | Sydney | Melbourne | Brisbane | Adelaide | Perth | Hobart | Darwin

Other Formats:

Comma delimited format used in spreadsheet applications
http://www.bom.gov.au/fwo/IDN60903/IDN60903.94921.axf

JavaScript Object Notation format (JSON) in row-major order
http://www.bom.gov.au/fwo/IDN60903/IDN60903.94921.json